Cosmos 2298 Rocket - Orbit

View from above orbital plane
View from above orbital plane
View from above satellite
View from above satellite

Ground track
Ground track

The orbit data is extracted from the following two-line orbital elements,

1 23432U 94083B   13140.18320867  .00000085  00000-0  40482-4 0  5656
2 23432 074.0318 140.2623 0005922 336.7433 094.0218 14.33140849962967
Epoch (UTC): 20 May 2013 04:23:49
Eccentricity: 0.0005922
inclination: 74.0318°
perigee height: 777 km
apogee height: 785 km
right ascension of ascending node: 140.2623°
argument of perigee: 336.7433°
revolutions per day: 14.33140849
mean anomaly at epoch: 94.0218°
orbit number at epoch: 96296

The dashed part of the orbit path shows where the satellite is in the earth's shadow,  

Developed and maintained by Chris Peat, Heavens-Above GmbH. Please read the updated FAQ before sending e-mail. Imprint. DLR